Sheridan, NY

1:18 PM EDT on July 28, 2016 (GMT -0400)
Chautauqua County-Dunkirk

Weather History for KDKK - October, 2011

Change the Weather History Date:

Thursday, October 13, 2011

  Actual Average Record
Temperature  
Mean Temperature 62 °F -  
Max Temperature 68 °F 63 °F 85 °F (1969)
Min Temperature 59 °F 45 °F 27 °F (2012)
Degree Days  
Heating Degree Days 2    
Growing Degree Days 12 (Base 50)    
Moisture  
Dew Point 56 °F    
Average Humidity 79    
Maximum Humidity 90    
Minimum Humidity 73    
Precipitation  
Precipitation 0.00 in - - ()
Sea Level Pressure  
Sea Level Pressure 29.64 in    
Wind  
Wind Speed 8 mph (SE)    
Max Wind Speed 12 mph    
Max Gust Speed 18 mph    
Visibility 10 miles    
Events      
Averages and records for this station are not official NWS values.
T = Trace of Precipitation, MM = Missing Value Source: NWS Daily Summary

Daily Weather History Graph

Daily Weather History Graph

Search for Another Location

Airport or City:

Trip Planner

Search our weather history database for the weather conditions in past years. The results will help you decide how hot, cold, wet, or windy it might be!

Date:

Astronomy

Oct. 13, 2011 Rise Set
Actual Time 7:27 AM EDT 6:38 PM EDT
Civil Twilight 6:59 AM EDT 7:06 PM EDT
Nautical Twilight 6:26 AM EDT 7:39 PM EDT
Astronomical Twilight 5:53 AM EDT 8:12 PM EDT
Moon 7:09 PM EDT (10/13) 9:00 AM EDT (10/13)
Length of Visible Light 12h 07m
Length of Day
11h 11m
Full, 98% of the Moon is Illuminated
Oct 13
Full
Oct 19
Last Quarter
Oct 26
New
Nov 2
First Quarter
Nov 10
Full

Hourly Weather History & Observations

Time (EDT) Temp. Dew Point Humidity Pressure Visibility Wind Dir Wind Speed Gust Speed Precip Events Conditions
12:53 AM 59.0 °F 53.1 °F 81% 29.78 in 10.0 mi South 11.5 mph - N/A   Overcast
2:53 AM 60.1 °F 53.1 °F 78% 29.77 in 10.0 mi South 11.5 mph - N/A   Overcast
3:53 AM 59.0 °F 54.0 °F 83% 29.76 in 10.0 mi South 9.2 mph - N/A   Overcast
4:53 AM 60.1 °F 54.0 °F 80% 29.75 in 10.0 mi South 8.1 mph 18.4 mph N/A   Overcast
5:53 AM 60.1 °F 54.0 °F 80% 29.75 in 10.0 mi South 8.1 mph - N/A   Overcast
6:53 AM 60.1 °F 54.0 °F 80% 29.74 in 10.0 mi South 8.1 mph - N/A   Overcast
7:53 AM 59.0 °F 54.0 °F 83% 29.73 in 10.0 mi South 4.6 mph - N/A   Mostly Cloudy
8:53 AM 60.1 °F 55.0 °F 83% 29.73 in 10.0 mi SSE 10.4 mph - N/A   Overcast
11:53 AM 66.0 °F 57.0 °F 73% 29.69 in 10.0 mi Variable 3.5 mph - N/A   Overcast
12:53 PM 66.0 °F 57.0 °F 73% 29.66 in 10.0 mi North 5.8 mph - N/A   Mostly Cloudy
1:53 PM 64.9 °F 57.9 °F 78% 29.64 in 10.0 mi NNW 5.8 mph - N/A   Overcast
2:53 PM 66.0 °F 57.9 °F 75% 29.60 in 10.0 mi NNE 9.2 mph - N/A   Overcast
3:53 PM 64.9 °F 59.0 °F 81% 29.59 in 10.0 mi NE 6.9 mph - N/A   Mostly Cloudy
4:53 PM 66.0 °F 57.9 °F 75% 29.57 in 10.0 mi NE 5.8 mph - N/A   Overcast
5:53 PM 66.0 °F 57.9 °F 75% 29.55 in 10.0 mi NE 3.5 mph - N/A   Mostly Cloudy
6:53 PM 61.0 °F 57.9 °F 90% 29.55 in 10.0 mi South 3.5 mph - N/A   Mostly Cloudy
8:12 PM 66.2 °F 57.2 °F 73% 29.53 in 10.0 mi ESE 5.8 mph - N/A   Overcast
8:53 PM 64.0 °F 59.0 °F 84% 29.51 in 10.0 mi SE 5.8 mph - N/A   Overcast
9:53 PM 64.0 °F 57.9 °F 80% 29.48 in 10.0 mi Calm Calm - N/A   Mostly Cloudy
10:53 PM 64.9 °F 57.9 °F 78% 29.45 in 10.0 mi Calm Calm - N/A   Clear